Lakeville, MN

6:26 AM CDT on August 28, 2016 (GMT -0500)
Airlake

Weather History for KLVN - January, 2014

Change the Weather History Date:

Wednesday, January 29, 2014

  Actual Average Record
Temperature  
Mean Temperature 12 °F -  
Max Temperature 32 °F 21 °F 40 °F (1988)
Min Temperature -7 °F 4 °F -33 °F (1951)
Degree Days  
Heating Degree Days 52    
Moisture  
Dew Point 2 °F    
Average Humidity 63    
Maximum Humidity 78    
Minimum Humidity 49    
Precipitation  
Precipitation 0.00 in - - ()
Sea Level Pressure  
Sea Level Pressure 29.82 in    
Wind  
Wind Speed 7 mph (SSW)    
Max Wind Speed 18 mph    
Max Gust Speed 30 mph    
Visibility 10 miles    
Events      
Averages and records for this station are not official NWS values.
T = Trace of Precipitation, MM = Missing Value Source: NWS Daily Summary

Daily Weather History Graph

Daily Weather History Graph

Search for Another Location

Airport or City:

Trip Planner

Search our weather history database for the weather conditions in past years. The results will help you decide how hot, cold, wet, or windy it might be!

Date:

Astronomy

Jan. 29, 2014 Rise Set
Actual Time 7:35 AM CST 5:17 PM CST
Civil Twilight 7:03 AM CST 5:48 PM CST
Nautical Twilight 6:28 AM CST 6:24 PM CST
Astronomical Twilight 5:54 AM CST 6:58 PM CST
Moon 6:12 AM CST (1/29) 4:18 PM CST (1/29)
Length of Visible Light 10h 45m
Length of Day
9h 42m
Waning Crescent, 2% of the Moon is Illuminated
Jan 29
Waning Crescent
Jan 30
New
Feb 6
First Quarter
Feb 14
Full
Feb 22
Last Quarter

Hourly Weather History & Observations

Time (CST) Temp. Windchill Dew Point Humidity Pressure Visibility Wind Dir Wind Speed Gust Speed Precip Events Conditions
12:02 AM -5.8 °F -16.7 °F -11.2 °F 77% 30.08 in 10.0 mi SW 4.6 mph - N/A   Clear
12:23 AM -5.8 °F -16.7 °F -11.2 °F 77% 30.08 in 10.0 mi WSW 4.6 mph - N/A   Clear
12:42 AM -7.6 °F -18.8 °F -13.0 °F 77% 30.08 in 10.0 mi WSW 4.6 mph - N/A   Clear
1:03 AM -7.6 °F -18.8 °F -13.0 °F 77% 30.08 in 10.0 mi WSW 4.6 mph - N/A   Clear
1:23 AM -7.6 °F -20.6 °F -13.0 °F 77% 30.06 in 10.0 mi WSW 5.8 mph - N/A   Clear
1:42 AM -5.8 °F -18.4 °F -11.2 °F 77% 30.06 in 10.0 mi WSW 5.8 mph - N/A   Clear
2:03 AM -5.8 °F -18.4 °F -11.2 °F 77% 30.06 in 10.0 mi WSW 5.8 mph - N/A   Clear
2:23 AM -5.8 °F -18.4 °F -11.2 °F 77% 30.06 in 10.0 mi WSW 5.8 mph - N/A   Clear
2:42 AM -5.8 °F -18.4 °F -11.2 °F 77% 30.06 in 10.0 mi WSW 5.8 mph - N/A   Clear
3:03 AM -5.8 °F -18.4 °F -11.2 °F 77% 30.05 in 10.0 mi SW 5.8 mph - N/A   Clear
3:23 AM -5.8 °F -18.4 °F -11.2 °F 77% 30.04 in 10.0 mi SW 5.8 mph - N/A   Clear
3:42 AM -5.8 °F -16.7 °F -11.2 °F 77% 30.03 in 10.0 mi SW 4.6 mph - N/A   Clear
4:03 AM -5.8 °F -14.5 °F -11.2 °F 77% 30.03 in 10.0 mi SW 3.5 mph - N/A   Clear
4:23 AM -5.8 °F -14.5 °F -11.2 °F 77% 30.02 in 10.0 mi SW 3.5 mph - N/A   Clear
4:42 AM -5.8 °F - -11.2 °F 77% 30.02 in 10.0 mi Calm Calm - N/A   Clear
5:03 AM -4.0 °F -12.4 °F -11.2 °F 71% 30.01 in 10.0 mi SW 3.5 mph - N/A   Clear
5:23 AM -4.0 °F - -9.4 °F 78% 30.00 in 10.0 mi Calm Calm - N/A   Clear
5:42 AM -4.0 °F -16.3 °F -11.2 °F 71% 29.99 in 10.0 mi SW 5.8 mph - N/A   Clear
6:03 AM -4.0 °F - -9.4 °F 78% 29.99 in 10.0 mi Calm Calm - N/A   Clear
6:22 AM -4.0 °F - -9.4 °F 78% 29.99 in 10.0 mi Calm Calm - N/A   Clear
6:42 AM -2.2 °F -10.4 °F -9.4 °F 71% 29.98 in 10.0 mi SW 3.5 mph - N/A   Clear
7:03 AM -5.8 °F -14.5 °F -11.2 °F 77% 29.98 in 10.0 mi SSW 3.5 mph - N/A   Clear
7:22 AM -5.8 °F - -11.2 °F 77% 29.97 in 10.0 mi Calm Calm - N/A   Clear
7:42 AM -4.0 °F -12.4 °F -11.2 °F 71% 29.95 in 10.0 mi SSW 3.5 mph - N/A   Clear
8:03 AM -0.4 °F -8.3 °F -9.4 °F 66% 29.95 in 10.0 mi SSW 3.5 mph - N/A   Clear
8:22 AM 1.4 °F -6.2 °F -9.4 °F 61% 29.95 in 10.0 mi SSW 3.5 mph - N/A   Clear
8:42 AM 1.4 °F -8.3 °F -7.6 °F 66% 29.94 in 10.0 mi SSW 4.6 mph - N/A   Clear
9:03 AM 3.2 °F -4.2 °F -5.8 °F 66% 29.94 in 10.0 mi SSW 3.5 mph - N/A   Clear
9:22 AM 6.8 °F -2.0 °F -5.8 °F 56% 29.94 in 10.0 mi SW 4.6 mph - N/A   Clear
9:43 AM 8.6 °F 0.1 °F -4.0 °F 57% 29.92 in 10.0 mi SW 4.6 mph - N/A   Clear
10:02 AM 10.4 °F 0.8 °F -4.0 °F 52% 29.91 in 10.0 mi SSW 5.8 mph - N/A   Clear
10:22 AM 10.4 °F 4.0 °F -2.2 °F 57% 29.92 in 10.0 mi South 3.5 mph - N/A   Clear
10:42 AM 12.2 °F 2.9 °F -0.4 °F 57% 29.91 in 10.0 mi South 5.8 mph - N/A   Clear
11:02 AM 12.2 °F 6.1 °F -0.4 °F 57% 29.91 in 10.0 mi South 3.5 mph - N/A   Clear
11:23 AM 15.8 °F 6.1 °F 1.4 °F 53% 29.89 in 10.0 mi South 6.9 mph - N/A   Clear
11:42 AM 17.6 °F 9.3 °F 1.4 °F 49% 29.87 in 10.0 mi South 5.8 mph - N/A   Clear
12:03 PM 17.6 °F 5.0 °F 1.4 °F 49% 29.85 in 10.0 mi South 11.5 mph 16.1 mph N/A   Clear
12:22 PM 19.4 °F 8.6 °F 3.2 °F 49% 29.83 in 10.0 mi South 9.2 mph - N/A   Clear
12:42 PM 19.4 °F 7.2 °F 3.2 °F 49% 29.80 in 10.0 mi South 11.5 mph - N/A   Clear
1:03 PM 21.2 °F 10.1 °F 5.0 °F 50% 29.79 in 10.0 mi South 10.4 mph 18.4 mph N/A   Clear
1:22 PM 21.2 °F 8.3 °F 6.8 °F 54% 29.77 in 10.0 mi South 13.8 mph 18.4 mph N/A   Clear
1:42 PM 21.2 °F 8.9 °F 6.8 °F 54% 29.74 in 10.0 mi South 12.7 mph 17.3 mph N/A   Clear
2:03 PM 23.0 °F 10.6 °F 8.6 °F 54% 29.73 in 10.0 mi South 13.8 mph 20.7 mph N/A   Clear
2:23 PM 23.0 °F 8.7 °F 10.4 °F 59% 29.71 in 10.0 mi South 18.4 mph 23.0 mph N/A   Clear
2:42 PM 24.8 °F 11.9 °F 10.4 °F 54% 29.70 in 10.0 mi South 16.1 mph 23.0 mph N/A   Clear
3:03 PM 24.8 °F 11.9 °F 12.2 °F 59% 29.68 in 10.0 mi South 16.1 mph 23.0 mph N/A   Clear
3:23 PM 24.8 °F 12.4 °F 12.2 °F 59% 29.66 in 10.0 mi South 15.0 mph 23.0 mph N/A   Clear
3:42 PM 26.6 °F 15.2 °F 12.2 °F 55% 29.66 in 10.0 mi South 13.8 mph 24.2 mph N/A   Clear
4:03 PM 26.6 °F 14.3 °F 12.2 °F 55% 29.65 in 10.0 mi South 16.1 mph 23.0 mph N/A   Clear
4:22 PM 26.6 °F 13.8 °F 12.2 °F 55% 29.64 in 10.0 mi South 17.3 mph 24.2 mph N/A   Clear
4:43 PM 26.6 °F 14.3 °F 14.0 °F 59% 29.62 in 10.0 mi South 16.1 mph 24.2 mph N/A   Clear
5:03 PM 26.6 °F 13.4 °F 14.0 °F 59% 29.61 in 10.0 mi South 18.4 mph 23.0 mph N/A   Clear
5:22 PM 26.6 °F 14.3 °F 14.0 °F 59% 29.60 in 10.0 mi South 16.1 mph 23.0 mph N/A   Clear
5:43 PM 28.4 °F 17.0 °F 15.8 °F 59% 29.61 in 10.0 mi South 15.0 mph 23.0 mph N/A   Scattered Clouds
6:03 PM 28.4 °F 16.2 °F 15.8 °F 59% 29.61 in 10.0 mi South 17.3 mph 24.2 mph N/A   Scattered Clouds
6:22 PM 28.4 °F 16.6 °F 15.8 °F 59% 29.60 in 10.0 mi South 16.1 mph 23.0 mph N/A   Clear
6:43 PM 28.4 °F 17.0 °F 15.8 °F 59% 29.60 in 10.0 mi South 15.0 mph 28.8 mph N/A   Clear
7:03 PM 28.4 °F 16.6 °F 15.8 °F 59% 29.58 in 10.0 mi South 16.1 mph 20.7 mph N/A   Clear
7:22 PM 28.4 °F 17.5 °F 15.8 °F 59% 29.58 in 10.0 mi South 13.8 mph 18.4 mph N/A   Clear
7:43 PM 30.2 °F 21.3 °F 15.8 °F 55% 29.57 in 10.0 mi SSW 10.4 mph 21.9 mph N/A   Clear
8:03 PM 32.0 °F 25.6 °F 15.8 °F 51% 29.57 in 10.0 mi SW 6.9 mph 29.9 mph N/A   Clear
8:22 PM 32.0 °F 25.6 °F 15.8 °F 51% 29.58 in 10.0 mi WSW 6.9 mph 16.1 mph N/A   Clear
8:43 PM 30.2 °F 22.6 °F 15.8 °F 55% 29.58 in 10.0 mi SW 8.1 mph - N/A   Clear
9:02 PM 30.2 °F 23.4 °F 15.8 °F 55% 29.59 in 10.0 mi SW 6.9 mph - N/A   Clear
9:22 PM 30.2 °F 23.4 °F 15.8 °F 55% 29.58 in 10.0 mi WSW 6.9 mph - N/A   Clear
9:43 PM 28.4 °F 22.2 °F 15.8 °F 59% 29.58 in 10.0 mi SW 5.8 mph - N/A   Scattered Clouds
10:02 PM 30.2 °F 21.9 °F 15.8 °F 55% 29.57 in 10.0 mi SW 9.2 mph - N/A   Clear
10:23 PM 30.2 °F 22.6 °F 15.8 °F 55% 29.56 in 10.0 mi SSW 8.1 mph 16.1 mph N/A   Clear
10:42 PM 30.2 °F 21.9 °F 15.8 °F 55% 29.56 in 10.0 mi SW 9.2 mph - N/A   Clear
11:02 PM 30.2 °F 23.4 °F 15.8 °F 55% 29.55 in 10.0 mi SW 6.9 mph - N/A   Clear
11:23 PM 30.2 °F 21.9 °F 15.8 °F 55% 29.55 in 10.0 mi SSW 9.2 mph - N/A   Clear
11:42 PM 28.4 °F 20.4 °F 15.8 °F 59% 29.54 in 10.0 mi SSW 8.1 mph - N/A   Scattered Clouds